Location: Lombard
(41.8800°N, 88.0080°W)
Time: 05:40:00
(UTC-05:00)

Vanguard 2 Rocket - Pass Details

Date: 02 March 2024
Orbit: 555 x 3307 km, 32.9° (Epoch: 12 April)

Event Time Altitude Azimuth Distance (km) Brightness Sun altitude
Rises 16:36:40 0° 270° (W) 4,550 12.0 11.3°
Reaches altitude 10° 16:39:23 10° 263° (W) 3,877 12.3 10.9°
Maximum altitude 16:49:31 45° 196° (SSW) 2,945 10.0 9.1°
Drops below altitude 10° 17:05:36 10° 132° (SE) 5,990 10.8 6.2°
Sets 17:11:03 0° 127° (SE) 7,196 11.1 5.2°
